FW6558 Weather Reports


time (UTC)temp
C
wind
direction
speed
KPH
gust
KPH
rain 1hr
cm
rain 24hr
cm
rain mn
cm
humidity
%
barometer
mb
20260508125805 10 311 3.2 9.7 0.00 0.00 0.00 55 1018.9
20260508125306 10 297 3.2 8.0 0.00 0.00 0.00 53 1019.1
20260508124804 9 300 3.2 4.8 0.00 0.00 0.00 59 1018.9
20260508124304 9 306 4.8 8.0 0.00 0.00 0.00 55 1019.2
20260508123804 9 285 3.2 9.7 0.00 0.00 0.00 58 1019.3
20260508122804 8 311 6.4 9.7 0.00 0.00 0.00 55 1019.4
20260508122307 8 298 4.8 9.7 0.00 0.00 0.00 54 1019.5
20260508121303 8 286 4.8 9.7 0.00 0.00 0.00 54 1019.5
20260508120804 8 282 3.2 9.7 0.00 0.00 0.00 53 1019.3
20260508120304 8 280 4.8 8.0 0.00 0.00 0.00 52 1019.4
20260508115804 8 249 3.2 4.8 0.00 0.00 0.00 52 1019.5
20260508114804 8 232 1.6 3.2 0.00 0.00 0.00 51 1019.3
20260508114304 8 212 1.6 4.8 0.00 0.00 0.00 51 1019.2
20260508113804 8 237 1.6 3.2 0.00 0.00 0.00 54 1019.2
20260508112804 6 238 1.6 3.2 0.00 0.00 0.00 57 1019.6
20260508111804 6 270 4.8 9.7 0.00 0.00 0.00 61 1019.5
20260508111304 6 275 4.8 11.3 0.00 0.00 0.00 61 1019.8
20260508110803 6 277 4.8 11.3 0.00 0.00 0.00 61 1019.6
20260508110304 6 270 3.2 9.7 0.00 0.00 0.00 62 1019.7
20260508105803 6 280 4.8 9.7 0.00 0.00 0.00 62 1020.0
20260508105306 5 271 4.8 8.0 0.00 0.00 0.00 63 1019.7
20260508104804 5 252 3.2 9.7 0.00 0.00 0.00 66 1019.9
20260508104304 5 264 3.2 9.7 0.00 0.00 0.00 66 1019.8
20260508103803 5 255 4.8 9.7 0.00 0.00 0.00 67 1019.8
20260508103304 5 258 4.8 9.7 0.00 0.00 0.00 68 1019.7
20260508102306 5 243 3.2 8.0 0.00 0.00 0.00 70 1019.9
20260508101804 5 251 4.8 9.7 0.00 0.00 0.00 70 1019.9
20260508100804 5 263 4.8 9.7 0.00 0.00 0.00 71 1019.8
20260508100303 5 244 3.2 9.7 0.00 0.00 0.00 73 1019.9
20260508095804 5 278 4.8 9.7 0.00 0.00 0.00 70 1019.6
20260508095306 5 244 3.2 9.7 0.00 0.00 0.00 68 1019.3
20260508094804 5 241 4.8 8.0 0.00 0.00 0.00 68 1019.5
20260508094304 6 256 4.8 8.0 0.00 0.00 0.00 67 1019.2
20260508093304 6 250 4.8 8.0 0.00 0.00 0.00 68 1019.5
20260508092312 5 259 4.8 8.0 0.00 0.00 0.00 69 1019.4
20260508091803 5 243 3.2 8.0 0.00 0.00 0.00 69 1019.4
20260508091304 5 258 4.8 11.3 0.00 0.00 0.00 69 1019.4
20260508090808 6 264 4.8 12.9 0.00 0.00 0.00 68 1019.0
20260508090307 6 245 4.8 11.3 0.00 0.00 0.00 69 1019.2
20260508085808 6 265 6.4 11.3 0.00 0.00 0.00 68 1019.1
20260508085308 6 263 4.8 11.3 0.00 0.00 0.00 69 1019.1
20260508084808 5 274 6.4 11.3 0.00 0.00 0.00 69 1019.3
20260508084307 5 241 8.0 11.3 0.00 0.03 0.00 71 1019.3
20260508083807 5 251 4.8 8.0 0.00 0.03 0.00 71 1019.2
20260508083307 5 251 4.8 8.0 0.00 0.03 0.00 72 1019.3
20260508082807 5 252 4.8 4.8 0.00 0.03 0.00 73 1019.3
20260508082307 5 248 3.2 4.8 0.00 0.03 0.00 73 1019.5
20260508081808 5 253 3.2 8.0 0.00 0.03 0.00 74 1019.3
20260508081307 5 269 6.4 11.3 0.00 0.03 0.00 74 1019.3
20260508080808 5 271 8.0 11.3 0.00 0.03 0.00 76 1019.2
20260508080308 5 252 3.2 4.8 0.00 0.03 0.00 79 1019.6
20260508074807 5 244 1.6 1.6 0.00 0.03 0.00 76 1019.2
20260508074307 6 267 1.6 8.0 0.00 0.03 0.00 74 1019.0
20260508073807 6 266 3.2 4.8 0.00 0.03 0.00 74 1019.0
20260508073307 6 258 4.8 8.0 0.00 0.03 0.00 75 1019.0
20260508072308 6 268 6.4 11.3 0.00 0.03 0.00 75 1018.8
20260508071307 6 269 4.8 9.7 0.00 0.03 0.00 76 1019.0
20260508065807 6 272 6.4 9.7 0.00 0.03 0.00 78 1018.9
20260508065307 6 284 4.8 9.7 0.00 0.03 0.00 79 1018.6
20260508064807 6 257 4.8 9.7 0.00 0.03 0.00 79 1018.8
20260508064307 6 243 3.2 8.0 0.00 0.03 0.00 79 1018.9
20260508063307 6 277 3.2 8.0 0.00 0.03 0.00 79 1018.8
20260508062807 6 271 3.2 9.7 0.00 0.03 0.00 80 1018.7
20260508062307 6 253 6.4 9.7 0.00 0.03 0.00 80 1018.7
20260508061807 6 280 6.4 12.9 0.00 0.03 0.00 79 1018.5
20260508061307 6 266 8.0 12.9 0.00 0.03 0.00 79 1018.9
20260508060807 7 268 8.0 11.3 0.00 0.03 0.00 78 1018.6
20260508060307 7 269 8.0 11.3 0.00 0.03 0.00 78 1018.6
20260508055807 7 274 8.0 14.5 0.00 0.03 0.00 78 1018.6
20260508055307 7 261 11.3 14.5 0.00 0.03 0.00 79 1018.6
20260508054807 7 265 11.3 14.5 0.00 0.03 0.00 80 1018.6
20260508054307 7 270 9.7 14.5 0.00 0.03 0.00 79 1018.6
20260508053807 7 282 11.3 14.5 0.00 0.03 0.00 79 1018.4
20260508053307 7 288 11.3 16.1 0.00 0.03 0.00 80 1018.5
20260508052807 7 280 12.9 19.3 0.00 0.03 0.00 80 1018.6
20260508052307 7 270 12.9 19.3 0.00 0.03 0.00 80 1018.5
20260508051807 7 274 12.9 19.3 0.00 0.03 0.00 80 1018.3
20260508051307 7 273 12.9 14.5 0.00 0.03 0.00 82 1018.6
20260508050806 7 269 9.7 16.1 0.00 0.03 0.00 81 1018.3
20260508050307 7 278 11.3 16.1 0.00 0.03 0.00 83 1018.3
20260508045807 7 262 11.3 12.9 0.00 0.03 0.00 83 1018.0
20260508045307 7 270 9.7 16.1 0.00 0.03 0.00 83 1018.2
20260508044807 7 261 12.9 16.1 0.00 0.03 0.00 82 1018.1
20260508044307 7 258 9.7 14.5 0.00 0.03 0.00 83 1018.0
20260508043806 7 266 9.7 14.5 0.00 0.03 0.00 83 1018.0
20260508043307 7 269 9.7 14.5 0.00 0.03 0.00 83 1017.9
20260508042807 7 265 8.0 12.9 0.00 0.03 0.00 83 1017.9
20260508042308 7 255 4.8 12.9 0.00 0.03 0.00 84 1017.7
20260508040806 7 271 9.7 12.9 0.00 0.03 0.00 83 1017.5
20260508035307 7 271 9.7 12.9 0.00 0.03 0.03 83 1017.4
20260508034807 7 262 9.7 12.9 0.00 0.03 0.03 83 1017.4
20260508034307 8 269 8.0 12.9 0.00 0.03 0.03 83 1017.3
20260508033806 8 275 9.7 16.1 0.00 0.03 0.03 82 1017.3
20260508033307 8 277 11.3 14.5 0.00 0.03 0.03 83 1017.5
20260508032807 8 276 11.3 14.5 0.00 0.03 0.03 83 1017.3
20260508032306 8 284 9.7 14.5 0.00 0.03 0.03 83 1017.2
20260508031807 8 286 9.7 14.5 0.00 0.03 0.03 83 1017.1
20260508031307 8 280 8.0 19.3 0.00 0.03 0.03 83 1017.0
20260508030807 8 279 14.5 19.3 0.00 0.03 0.03 83 1017.0
20260508030306 8 268 14.5 16.1 0.00 0.03 0.03 82 1016.8
20260508025807 8 285 14.5 19.3 0.00 0.03 0.03 82 1016.8
20260508025306 8 272 14.5 19.3 0.00 0.05 0.03 82 1016.9
20260508024806 8 275 16.1 22.5 0.00 0.05 0.03 81 1016.9
20260508024307 8 278 14.5 22.5 0.00 0.05 0.03 81 1016.6
20260508023806 8 270 16.1 22.5 0.00 0.05 0.03 80 1016.6
20260508023307 8 277 17.7 22.5 0.00 0.08 0.03 80 1016.7
20260508022307 8 271 16.1 22.5 0.00 0.08 0.03 78 1016.5
20260508021807 8 285 16.1 22.5 0.00 0.08 0.03 78 1016.3
20260508021306 8 276 16.1 22.5 0.00 0.08 0.03 78 1016.2
20260508020807 8 273 16.1 22.5 0.00 0.08 0.03 78 1016.1
20260508020306 8 271 16.1 24.1 0.00 0.08 0.03 77 1016.2
20260508015806 8 269 16.1 22.5 0.00 0.08 0.03 78 1016.2
20260508015307 8 276 14.5 20.9 0.00 0.08 0.03 78 1016.0
20260508014807 8 276 14.5 22.5 0.00 0.08 0.03 78 1015.9
20260508014306 8 252 16.1 20.9 0.00 0.08 0.03 78 1015.9
20260508013806 8 279 14.5 20.9 0.00 0.08 0.03 79 1015.8
20260508013306 8 272 16.1 22.5 0.00 0.08 0.03 78 1015.7
20260508012806 8 266 16.1 20.9 0.00 0.08 0.03 78 1015.5
20260508012307 8 261 14.5 20.9 0.00 0.08 0.03 78 1015.3
20260508011807 8 282 14.5 20.9 0.00 0.08 0.03 78 1015.5
20260508011306 8 265 14.5 22.5 0.00 0.08 0.03 79 1015.3
20260508010306 8 268 16.1 22.5 0.00 0.08 0.03 79 1015.3
20260508005806 8 274 12.9 22.5 0.00 0.08 0.03 79 1015.0
20260508005306 8 268 14.5 22.5 0.00 0.08 0.03 79 1014.8
20260508004806 8 279 17.7 22.5 0.00 0.08 0.03 79 1014.8
20260508003807 8 268 17.7 25.7 0.00 0.08 0.03 80 1015.1
20260508003306 9 273 17.7 25.7 0.00 0.08 0.03 79 1014.8
20260508002806 8 268 19.3 25.7 0.00 0.08 0.03 79 1014.9
20260508002307 9 273 16.1 22.5 0.00 0.08 0.03 79 1015.1
20260508001306 9 264 12.9 22.5 0.00 0.08 0.03 77 1014.9
20260508000807 9 276 11.3 24.1 0.00 0.08 0.03 76 1015.0
20260508000306 9 261 14.5 24.1 0.00 0.08 0.03 76 1014.9
20260507235307 10 263 16.1 25.7 0.00 0.08 0.03 75 1014.9
20260507234806 10 265 16.1 27.4 0.00 0.08 0.03 73 1014.7
20260507234306 10 272 17.7 29.0 0.00 0.08 0.03 75 1014.7
20260507233306 10 290 16.1 20.9 0.00 0.08 0.03 74 1014.3
20260507232806 10 293 16.1 32.2 0.00 0.08 0.03 74 1014.5
20260507231806 10 286 20.9 32.2 0.00 0.08 0.03 74 1014.3
20260507231306 10 290 22.5 37.0 0.00 0.08 0.03 75 1014.2
20260507230806 10 287 19.3 32.2 0.00 0.08 0.03 74 1014.0
20260507230306 11 297 19.3 32.2 0.00 0.08 0.03 73 1013.7
20260507225306 10 307 17.7 29.0 0.00 0.08 0.03 75 1013.9
20260507224806 10 282 20.9 27.4 0.00 0.08 0.03 77 1014.2
20260507224306 10 284 19.3 29.0 0.00 0.08 0.03 77 1013.9
20260507223806 10 286 24.1 29.0 0.00 0.08 0.03 77 1013.9
20260507223306 10 268 19.3 33.8 0.00 0.08 0.03 77 1013.9
20260507222806 10 272 22.5 35.4 0.00 0.08 0.03 77 1013.9
20260507222306 10 278 19.3 29.0 0.00 0.08 0.03 77 1013.7
20260507221806 10 285 24.1 40.2 0.00 0.08 0.03 77 1013.6
20260507221306 10 274 27.4 35.4 0.00 0.08 0.03 78 1013.6
20260507220806 10 280 22.5 32.2 0.00 0.08 0.03 77 1013.3
20260507220305 10 282 20.9 29.0 0.00 0.08 0.03 78 1013.6
20260507215307 10 278 19.3 27.4 0.00 0.08 0.03 77 1013.2
20260507214806 11 284 16.1 25.7 0.00 0.08 0.03 77 1013.1
20260507214306 10 296 14.5 27.4 0.00 0.08 0.03 77 1013.3
20260507213806 10 280 16.1 29.0 0.00 0.08 0.03 78 1013.1
20260507213306 10 280 25.7 29.0 0.00 0.08 0.03 76 1013.1
20260507212806 10 311 16.1 29.0 0.00 0.08 0.03 77 1013.0
20260507212307 10 283 16.1 32.2 0.00 0.08 0.03 79 1013.4
20260507211806 10 271 17.7 29.0 0.00 0.08 0.03 79 1013.3
20260507211305 10 265 20.9 32.2 0.00 0.08 0.03 80 1013.3
20260507210806 10 265 19.3 29.0 0.00 0.08 0.03 82 1013.5
20260507210306 10 274 20.9 29.0 0.00 0.08 0.03 82 1013.7
20260507205307 10 276 22.5 37.0 0.00 0.08 0.03 82 1013.4
20260507204806 10 295 19.3 33.8 0.00 0.08 0.03 81 1013.4
20260507204305 10 301 22.5 41.8 0.00 0.08 0.03 79 1012.5
20260507203806 11 297 22.5 38.6 0.00 0.08 0.03 78 1012.3
20260507203306 11 277 22.5 38.6 0.00 0.08 0.03 77 1012.1
20260507202307 11 303 25.7 35.4 0.00 0.08 0.03 78 1012.0
20260507201306 11 298 22.5 32.2 0.00 0.08 0.03 80 1011.6
20260507200806 12 293 19.3 35.4 0.00 0.08 0.03 80 1011.4
20260507195806 12 280 20.9 27.4 0.00 0.08 0.03 78 1011.4
20260507195306 12 272 20.9 27.4 0.00 0.08 0.03 80 1011.6
20260507194805 12 296 17.7 29.0 0.00 0.08 0.03 80 1011.5
20260507194305 12 289 20.9 29.0 0.00 0.08 0.03 78 1011.7
20260507193805 11 267 16.1 25.7 0.00 0.08 0.03 82 1011.8
20260507192306 12 295 17.7 24.1 0.00 0.08 0.03 81 1011.9
20260507191806 12 272 17.7 27.4 0.00 0.08 0.03 83 1011.9
20260507191305 12 284 17.7 25.7 0.00 0.08 0.03 84 1011.9
20260507190806 12 272 19.3 25.7 0.00 0.08 0.03 82 1011.7
20260507190305 13 306 17.7 25.7 0.00 0.08 0.03 77 1011.2
20260507185805 13 304 14.5 29.0 0.00 0.08 0.03 82 1011.4
20260507185306 13 290 17.7 29.0 0.00 0.08 0.03 79 1011.4
20260507184805 13 311 14.5 27.4 0.00 0.08 0.03 81 1011.1
20260507184305 13 311 14.5 24.1 0.00 0.08 0.03 79 1011.3
20260507182307 13 282 12.9 22.5 0.00 0.08 0.03 81 1011.3
20260507181805 14 260 8.0 20.9 0.00 0.08 0.03 82 1011.2
20260507181305 13 315 9.7 14.5 0.00 0.08 0.03 84 1011.3
20260507180806 13 301 9.7 19.3 0.00 0.08 0.03 87 1011.8
20260507180305 12 314 6.4 14.5 0.00 0.08 0.03 89 1012.3
20260507175307 12 310 8.0 14.5 0.00 0.08 0.03 89 1012.2
20260507174305 12 324 3.2 16.1 0.00 0.08 0.03 88 1012.0
20260507173805 12 221 1.6 16.1 0.00 0.08 0.03 89 1012.1
20260507173305 12 311 3.2 12.9 0.00 0.08 0.03 88 1012.2
20260507172805 12 295 8.0 14.5 0.00 0.08 0.03 87 1012.1
20260507172307 12 304 6.4 11.3 0.00 0.08 0.03 85 1011.7
20260507171805 12 324 1.6 3.2 0.00 0.08 0.03 87 1011.8
20260507171305 12 315 1.6 3.2 0.00 0.08 0.03 86 1011.6
20260507170805 12 43 1.6 8.0 0.00 0.08 0.03 88 1012.0
20260507170305 12 26 4.8 9.7 0.00 0.08 0.03 90 1012.3
20260507164805 11 52 4.8 8.0 0.00 0.08 0.03 90 1012.3
20260507163305 11 328 3.2 8.0 0.00 0.08 0.03 90 1012.3
20260507162307 11 21 3.2 8.0 0.00 0.08 0.03 90 1012.3
20260507161805 12 31 3.2 8.0 0.00 0.10 0.03 90 1012.0
20260507160805 12 303 1.6 3.2 0.00 0.15 0.03 90 1012.4
20260507160305 12 17 3.2 4.8 0.00 0.15 0.03 90 1012.4
20260507155306 11 302 3.2 8.0 0.00 0.15 0.03 92 1012.7
20260507154805 11 291 3.2 9.7 0.00 0.15 0.03 93 1012.7
20260507153805 11 304 8.0 11.3 0.00 0.15 0.03 91 1012.9
20260507153305 12 306 4.8 9.7 0.00 0.15 0.03 90 1012.8
20260507152805 12 14 1.6 4.8 0.00 0.15 0.03 91 1012.6
20260507152306 12 19 1.6 3.2 0.00 0.15 0.03 91 1012.4
20260507151805 12 356 1.6 3.2 0.00 0.15 0.03 92 1012.3
20260507151305 12 17 1.6 3.2 0.00 0.15 0.03 93 1012.6
20260507150805 11 17 1.6 3.2 0.00 0.15 0.03 93 1012.8
20260507150305 11 21 1.6 3.2 0.00 0.15 0.03 93 1012.5
20260507145306 11 317 1.6 4.8 0.00 0.15 0.03 92 1012.7
20260507144805 11 300 0.0 4.8 0.00 0.15 0.03 92 1012.5
20260507144304 11 31 1.6 4.8 0.00 0.15 0.03 92 1012.5
20260507143804 11 4 1.6 4.8 0.00 0.15 0.03 93 1012.5
20260507142805 12 21 1.6 4.8 0.00 0.15 0.03 92 1012.4
20260507142307 12 355 0.0 3.2 0.00 0.15 0.03 92 1012.3
20260507141805 12 16 0.0 4.8 0.00 0.15 0.03 93 1012.1
20260507141304 12 22 1.6 4.8 0.00 0.15 0.03 93 1012.1
20260507140804 12 17 1.6 3.2 0.00 0.15 0.03 92 1012.4
20260507140305 12 28 1.6 4.8 0.00 0.15 0.03 93 1012.2
20260507135805 12 41 3.2 8.0 0.00 0.15 0.03 94 1012.1
20260507134804 12 31 3.2 4.8 0.00 0.15 0.03 94 1012.5
20260507134304 12 33 3.2 3.2 0.00 0.15 0.03 94 1012.4
20260507133304 12 238 1.6 8.0 0.00 0.18 0.03 95 1012.3
20260507132804 12 34 3.2 9.7 0.00 0.18 0.03 95 1012.2
20260507132307 12 25 3.2 9.7 0.00 0.20 0.03 94 1012.0
20260507131804 12 47 4.8 9.7 0.00 0.20 0.03 95 1011.8
20260507131304 12 46 4.8 9.7 0.00 0.23 0.03 95 1011.6
20260507130804 12 55 8.0 9.7 0.00 0.25 0.03 95 1011.6
20260507130304 12 36 6.4 9.7 0.00 0.25 0.03 95 1011.8